Location: Bessat
(45.8735°N, 1.9924°E)
Time: 09:05:28
(UTC+00:00)

ALOS 2 - Pass Details

Date: 11 May 2021
Orbit: 630 x 632 km, 97.9° (Epoch: 15 June)

Event Time Altitude Azimuth Distance (km) Brightness Sun altitude
Exits shadow 22:40:58 37° 75° (ENE) 982 3.5 -24.2°
Maximum altitude 22:41:07 38° 69° (ENE) 979 3.5 -24.2°
Drops below altitude 10° 22:45:11 10° 2° (N) 2,025 6.1 -24.4°
Sets 22:47:30 0° 355° (N) 2,937 7.4 -24.5°
